Waukegan, IL

3:31 PM CDT on October 15, 2019 (GMT -0500)
Waukegan Regional

Weather History for KUGN - September, 2019

Change the Weather History Date:

Sunday, September 22, 2019

  Actual Average Record
Temperature  
Mean Temperature 70 °F 60 °F  
Max Temperature 75 °F 69 °F 92 °F (2017)
Min Temperature 64 °F 50 °F 40 °F (1999)
Degree Days  
Heating Degree Days 0 6  
Month to date heating degree days 14 72  
Since 1 July heating degree days 22 100  
Cooling Degree Days 5 1  
Month to date cooling degree days 85 50  
Year to date cooling degree days 573 552  
Growing Degree Days 20 (Base 50)    
Moisture  
Dew Point 66 °F    
Average Humidity 88    
Maximum Humidity 93    
Minimum Humidity 74    
Precipitation  
Precipitation 0.74 in 0.13 in 2.02 in (2000)
Month to date precipitation 9.34 2.47  
Year to date precipitation 37.30 26.92  
Sea Level Pressure  
Sea Level Pressure 29.84 in    
Wind  
Wind Speed 11 mph ()    
Max Wind Speed 24 mph    
Max Gust Speed 33 mph    
Visibility 7.8 miles    
Events Rain    
T = Trace of Precipitation, MM = Missing Value Source: Averaged Metar Reports

Daily Weather History Graph

Daily Weather History Graph

Search for Another Location

Airport or City:

Astronomy

Sep. 22, 2019 Rise Set
Actual Time 6:38 AM CDT 6:49 PM CDT
Civil Twilight 6:10 AM CDT 7:17 PM CDT
Nautical Twilight 5:37 AM CDT 7:49 PM CDT
Astronomical Twilight 5:03 AM CDT 8:23 PM CDT
Moon No Moon Rise 2:52 PM CDT (9/22)
Length of Visible Light 13h 06m
Length of Day
12h 10m
Last Quarter, 44% of the Moon is Illuminated
Sep 22
Last Quarter
Sep 28
New
Oct 5
First Quarter
Oct 13
Full
Oct 21
Last Quarter

Hourly Weather History & Observations

Time (CDT) Temp. Dew Point Humidity Pressure Visibility Wind Dir Wind Speed Gust Speed Precip Events Conditions
12:55 AM 72.0 °F 68.0 °F 87% 29.93 in 10.0 mi SSW 16.1 mph - 0.00 in   Clear
1:55 AM 72.0 °F 68.0 °F 87% 29.93 in 10.0 mi SSW 13.8 mph 23.0 mph N/A   Clear
2:55 AM 72.0 °F 66.9 °F 84% 29.92 in 10.0 mi SSW 15.0 mph 25.3 mph N/A   Clear
3:55 AM 72.0 °F 66.9 °F 84% 29.90 in 10.0 mi SSW 16.1 mph - N/A   Partly Cloudy
4:55 AM 72.0 °F 68.0 °F 87% 29.89 in 9.0 mi SSW 12.7 mph 23.0 mph 0.00 in Rain Light Rain
5:53 AM 71.6 °F 68.0 °F 88% 29.91 in 2.0 mi SSW 11.5 mph - 0.14 in Rain Rain
5:55 AM 71.1 °F 68.0 °F 90% 29.88 in 1.5 mi SSW 11.5 mph - 0.15 in Rain Heavy Rain
5:57 AM 71.1 °F 68.0 °F 90% 29.91 in 3.0 mi SSW 12.7 mph - 0.00 in Rain Rain
6:55 AM 71.1 °F 68.0 °F 90% 29.88 in 3.0 mi SSW 16.1 mph 27.6 mph 0.08 in Rain Light Rain
6:59 AM 71.1 °F 68.0 °F 90% 29.91 in 1.5 mi SSW 16.1 mph 27.6 mph 0.04 in Rain Rain
7:55 AM 71.1 °F 68.0 °F 90% 29.87 in 10.0 mi SSW 13.8 mph - 0.12 in   Mostly Cloudy
8:41 AM 71.1 °F 68.0 °F 90% 29.89 in 2.0 mi SW 12.7 mph - 0.05 in Rain Light Rain
8:55 AM 71.1 °F 68.0 °F 90% 29.86 in 4.0 mi SSW 11.5 mph - 0.09 in Rain Light Rain
9:55 AM 72.0 °F 68.0 °F 87% 29.84 in 10.0 mi SSW 13.8 mph 24.2 mph 0.00 in   Mostly Cloudy
10:55 AM 75.9 °F 68.0 °F 76% 29.82 in 10.0 mi SW 23.0 mph 31.1 mph N/A   Scattered Clouds
11:47 AM 75.9 °F 66.9 °F 74% 29.85 in 10.0 mi SW 19.6 mph - N/A   Mostly Cloudy
11:55 AM 75.9 °F 66.9 °F 74% 29.82 in 10.0 mi SW 17.3 mph 26.5 mph N/A   Overcast
12:55 PM 73.0 °F 66.9 °F 81% 29.83 in 9.0 mi SW 17.3 mph 28.8 mph 0.00 in Rain Light Rain
1:32 PM 73.0 °F 68.0 °F 84% 29.85 in 10.0 mi SW 18.4 mph 24.2 mph 0.01 in   Overcast
1:55 PM 72.0 °F 68.0 °F 87% 29.81 in 7.0 mi SSW 13.8 mph 25.3 mph 0.03 in Rain Light Rain
2:51 PM 73.4 °F 68.0 °F 83% 29.83 in 10.0 mi SW 16.1 mph 25.3 mph 0.00 in   Mostly Cloudy
2:55 PM 73.0 °F 68.0 °F 84% 29.81 in 10.0 mi SW 15.0 mph - 0.00 in   Mostly Cloudy
3:55 PM 71.1 °F 68.0 °F 90% 29.80 in 10.0 mi SW 10.4 mph - N/A   Mostly Cloudy
4:39 PM 71.1 °F 64.9 °F 81% 29.81 in 10.0 mi Variable 5.8 mph - 0.00 in   Overcast
4:55 PM 70.0 °F 66.0 °F 87% 29.78 in 10.0 mi SW 6.9 mph - 0.00 in   Overcast
5:07 PM 70.0 °F 64.9 °F 84% 29.80 in 10.0 mi SW 5.8 mph - 0.01 in Rain Light Rain
5:47 PM 68.0 °F 64.9 °F 90% 29.79 in 3.0 mi SW 6.9 mph - 0.21 in Rain Rain
5:55 PM 68.0 °F 64.9 °F 90% 29.77 in 3.0 mi SW 6.9 mph - 0.21 in Rain Light Rain
6:15 PM 68.0 °F 64.9 °F 90% 29.78 in 2.0 mi Variable 3.5 mph - 0.04 in Rain Light Rain
6:20 PM 68.0 °F 64.9 °F 90% 29.79 in 3.0 mi NW 4.6 mph - 0.04 in Rain Light Rain
6:33 PM 66.9 °F 64.9 °F 93% 29.79 in 6.0 mi Variable 3.5 mph - 0.05 in Rain Light Rain
6:55 PM 68.0 °F 64.9 °F 90% 29.76 in 10.0 mi NW 3.5 mph - 0.06 in   Overcast
7:55 PM 66.9 °F 64.9 °F 93% 29.77 in 10.0 mi Variable 4.6 mph - N/A   Mostly Cloudy
8:05 PM 66.9 °F 64.9 °F 93% 29.80 in 10.0 mi Variable 3.5 mph - N/A   Scattered Clouds
8:55 PM 66.9 °F 64.9 °F 93% 29.79 in 10.0 mi Variable 3.5 mph - N/A   Mostly Cloudy
9:15 PM 66.9 °F 64.9 °F 93% 29.82 in 10.0 mi Calm Calm - N/A   Scattered Clouds
9:37 PM 66.9 °F 64.9 °F 93% 29.83 in 10.0 mi Variable 4.6 mph - N/A   Mostly Cloudy
9:55 PM 66.9 °F 64.0 °F 90% 29.81 in 10.0 mi Variable 3.5 mph - N/A   Partly Cloudy
10:55 PM 64.9 °F 63.0 °F 93% 29.81 in 10.0 mi Calm Calm - N/A   Clear
11:25 PM 66.0 °F 63.0 °F 90% 29.84 in 10.0 mi Variable 3.5 mph - N/A   Mostly Cloudy
11:33 PM 66.0 °F 63.0 °F 90% 29.85 in 10.0 mi Variable 3.5 mph - N/A   Mostly Cloudy
11:55 PM 66.0 °F 63.0 °F 90% 29.82 in 10.0 mi WSW 4.6 mph - N/A   Overcast